Flag for U.S.A. Weather past 2 weeks in Manassas, Virginia, U.S.A.

Now
81 °F

More clouds than sun.


Feels Like: 85 °F
Forecast: 69 / 84 °F
Wind: 8 mph from South

Location: Manassas Municipal

Current Time: Jul 22, 2014 at 3:14:16 PM

Latest Report: Jul 22, 2014 at 12:45 PM


Visibility: 10 mi

Pressure: 30.17 "Hg

Humidity: 74%

Dew point: 72 °F

Location of ManassasLocation

Historic Weather in Manassas — Graph

°F

Manassas temperature yesterday

Maximum temperature yesterday: 82 °F (at 4:45 PM)
Minimum temperature yesterday: 72 °F (at 12:55 AM)
Average temperature yesterday: 74 °F

Past Weeks' High & Low Weather Summary

 TemperatureHumidityPressure
High91 °F (Jul 8, 2:45 PM)100% (Jul 8, 10:55 PM)30.25 "Hg (Jul 8, 10:55 PM)
Low61 °F (Jul 17, 5:35 AM)40% (Jul 18, 4:45 PM)29.73 "Hg (Jul 15, 5:50 PM)
Average73 °F85%30.04 "Hg
* Reported Jul 7 12:45 PM — Jul 22 12:45 PM, Manassas, Weather by CustomWeather, © 2014

Note: Actual official high and low records may vary slightly from our data, if they occured in-between our weather recording intervals... More about our weather records

Advertising

Manassas weather history for previous 24 hours

 ConditionsComfort  
Time TempWeatherWind HumidityBarometerVisibility
12:45 PM
Jul 22
81 °FMore clouds than sun.8 mph74%30.17 "Hg10 mi
11:50 AM81 °FOvercast.5 mph84%30.18 "Hg10 mi
10:50 AM77 °FMostly cloudy.5 mph83%30.19 "Hg10 mi
9:45 AM75 °FOvercast.7 mph94%30.20 "Hg10 mi
8:45 AM73 °FLow clouds.6 mph100%30.20 "Hg10 mi
7:45 AM72 °FFog.5 mph94%30.20 "Hg4 mi
6:30 AM72 °FLow clouds.No wind94%30.17 "Hg10 mi
6:15 AM72 °FLow clouds.No wind100%30.17 "Hg10 mi
5:55 AM72 °FPassing clouds.3 mph100%30.16 "Hg9 mi
5:35 AM72 °FPartly cloudy.No wind100%30.16 "Hg10 mi
5:15 AM72 °FMostly cloudy.No wind94%30.16 "Hg10 mi
4:55 AM72 °FMostly cloudy.3 mph94%30.16 "Hg10 mi
4:35 AM72 °FOvercast.5 mph94%30.16 "Hg10 mi
4:15 AM72 °FMostly cloudy.3 mph94%30.16 "Hg10 mi
3:55 AM72 °FMostly cloudy.No wind94%30.16 "Hg10 mi
3:35 AM72 °FMostly cloudy.No wind94%30.16 "Hg10 mi
3:15 AM72 °FOvercast.No wind94%30.16 "Hg10 mi
2:55 AM72 °FOvercast.No wind100%30.16 "Hg10 mi
2:35 AM70 °FMostly cloudy.3 mph100%30.17 "Hg10 mi
2:15 AM72 °FPartly cloudy.3 mph100%30.17 "Hg10 mi
1:55 AM70 °FPassing clouds.No wind100%30.18 "Hg10 mi
1:35 AM70 °FPassing clouds.No wind100%30.18 "Hg10 mi
1:15 AM72 °FPassing clouds.No wind100%30.18 "Hg10 mi
12:55 AM72 °FPassing clouds.No wind100%30.18 "Hg10 mi
12:35 AM72 °FClear.No wind94%30.18 "Hg10 mi
12:15 AM72 °FClear.No wind100%30.18 "Hg10 mi
11:55 PM
Jul 21
72 °FPassing clouds.No wind100%30.18 "Hg10 mi
11:35 PM72 °FOvercast.No wind100%30.18 "Hg10 mi
10:55 PM72 °FPassing clouds.No wind94%30.18 "Hg10 mi
10:35 PM72 °FPassing clouds.3 mph94%30.18 "Hg7 mi
10:15 PM73 °FPassing clouds.No wind89%30.18 "Hg10 mi
9:55 PM73 °FPassing clouds.No wind89%30.17 "Hg8 mi
9:35 PM73 °FPartly cloudy.No wind89%30.17 "Hg10 mi
9:15 PM75 °FScattered clouds.No wind83%30.16 "Hg10 mi
8:55 PM75 °FSunny.No wind83%30.16 "Hg10 mi
6:45 PM79 °FPartly sunny.12 mph74%30.15 "Hg10 mi
5:50 PM81 °FScattered clouds.12 mph74%30.15 "Hg10 mi
4:45 PM82 °FPassing clouds.7 mph66%30.15 "Hg10 mi
3:45 PM81 °FMore clouds than sun.7 mph74%30.15 "Hg10 mi
Weather by CustomWeather, © 2014

See weather overviewHow to use our weather pages